Victoria, TX

7:57 AM CDT on May 25, 2017 (GMT -0500)
Victoria Regional

Weather History for KVCT - July, 2013

Change the Weather History Date:

Saturday, July 20, 2013

  Actual Average Record
Temperature  
Mean Temperature 83 °F 84 °F  
Max Temperature 92 °F 94 °F 105 °F (1913)
Min Temperature 74 °F 74 °F 69 °F (1907)
Degree Days  
Heating Degree Days 0 0  
Month to date heating degree days 0 0  
Since 1 June heating degree days 0 0  
Since 1 July heating degree days 0 0  
Cooling Degree Days 18 19  
Month to date cooling degree days 380 375  
Year to date cooling degree days 1606 1542  
Since 1 June cooling degree days 972 883  
Growing Degree Days 32 (Base 50)    
Moisture  
Dew Point 74 °F    
Average Humidity 78    
Maximum Humidity 100    
Minimum Humidity 56    
Precipitation  
Precipitation 1.03 in 0.12 in 2.29 in (2007)
Month to date precipitation 3.47 2.91  
Year to date precipitation 13.03 22.75  
Snow  
Snow 0.00 in - - ()
Month to date snowfall 0.0  
Since 1 June snowfall 0.0  
Since 1 July snowfall 0.0  
Snow Depth 0.00 in    
Sea Level Pressure  
Sea Level Pressure 29.94 in    
Wind  
Wind Speed 6 mph (SE)    
Max Wind Speed 26 mph    
Max Gust Speed 33 mph    
Visibility 10 miles    
Events Rain    
T = Trace of Precipitation, MM = Missing Value Source: NWS Daily Summary

Daily Weather History Graph

Daily Weather History Graph

Search for Another Location

Airport or City:

Trip Planner

Search our weather history database for the weather conditions in past years. The results will help you decide how hot, cold, wet, or windy it might be!

Date:

Astronomy

Jul. 20, 2013 Rise Set
Actual Time 6:42 AM CDT 8:25 PM CDT
Civil Twilight 6:15 AM CDT 8:51 PM CDT
Nautical Twilight 5:44 AM CDT 9:23 PM CDT
Astronomical Twilight 5:11 AM CDT 9:56 PM CDT
Moon 6:31 PM CDT (7/20) 4:22 AM CDT (7/20)
Length of Visible Light 14h 35m
Length of Day
13h 43m
Waxing Gibbous, 94% of the Moon is Illuminated
Jul 20
Waxing Gibbous
Jul 22
Full
Jul 29
Last Quarter
Aug 6
New
Aug 14
First Quarter

Hourly Weather History & Observations

Time (CDT) Temp. Heat Index Dew Point Humidity Pressure Visibility Wind Dir Wind Speed Gust Speed Precip Events Conditions
12:51 AM 77.0 °F - 73.9 °F 90% 29.99 in 10.0 mi SSE 3.5 mph - N/A   Clear
1:51 AM 75.9 °F - 73.9 °F 94% 29.97 in 10.0 mi SSW 3.5 mph - N/A   Clear
2:49 AM 75.2 °F - 73.4 °F 94% 29.97 in 10.0 mi East 3.5 mph - N/A   Mostly Cloudy
2:51 AM 75.0 °F - 73.9 °F 96% 29.96 in 10.0 mi Calm Calm - N/A   Mostly Cloudy
3:10 AM 75.2 °F - 73.4 °F 94% 29.96 in 10.0 mi Calm Calm - N/A   Scattered Clouds
3:51 AM 75.0 °F - 73.9 °F 96% 29.95 in 10.0 mi Calm Calm - N/A   Clear
4:51 AM 75.0 °F - 73.0 °F 94% 29.95 in 10.0 mi Calm Calm - N/A   Clear
5:51 AM 73.9 °F - 73.0 °F 97% 29.95 in 10.0 mi NE 4.6 mph - N/A   Clear
6:51 AM 73.9 °F - 73.0 °F 97% 29.96 in 10.0 mi NE 4.6 mph - N/A   Clear
7:51 AM 75.9 °F - 75.0 °F 97% 29.97 in 10.0 mi NE 3.5 mph - N/A   Clear
8:51 AM 81.0 °F 87.9 °F 77.0 °F 88% 29.97 in 10.0 mi NE 3.5 mph - N/A   Clear
9:51 AM 84.0 °F 91.9 °F 75.0 °F 74% 29.97 in 10.0 mi SE 4.6 mph - N/A   Scattered Clouds
10:03 AM 84.2 °F 90.9 °F 73.4 °F 70% 29.97 in 10.0 mi South 5.8 mph - N/A   Mostly Cloudy
10:15 AM 84.2 °F 92.3 °F 75.2 °F 74% 29.97 in 10.0 mi SSE 5.8 mph - N/A   Partly Cloudy
10:51 AM 87.1 °F 94.5 °F 73.0 °F 63% 29.96 in 10.0 mi East 3.5 mph - N/A   Scattered Clouds
11:02 AM 86.0 °F 93.4 °F 73.4 °F 66% 29.96 in 10.0 mi Calm Calm - N/A   Mostly Cloudy
11:11 AM 87.8 °F 93.8 °F 71.6 °F 58% 29.96 in 10.0 mi Calm Calm - N/A   Mostly Cloudy
11:51 AM 87.1 °F 92.8 °F 71.1 °F 59% 29.95 in 10.0 mi ESE 4.6 mph - N/A   Mostly Cloudy
12:51 PM 90.0 °F 96.4 °F 71.1 °F 54% 29.94 in 10.0 mi SE 5.8 mph - N/A   Partly Cloudy
1:51 PM 84.9 °F 93.3 °F 75.0 °F 72% 29.93 in 10.0 mi WSW 9.2 mph - 0.00 in Rain Light Rain
2:27 PM 75.2 °F - 71.6 °F 89% 29.95 in 10.0 mi ESE 17.3 mph 33.4 mph 0.36 in Rain Heavy Rain
2:43 PM 75.2 °F - 71.6 °F 89% 29.94 in 10.0 mi Variable 3.5 mph 19.6 mph 0.83 in Rain Heavy Rain
2:51 PM 73.9 °F - 71.1 °F 91% 29.94 in 10.0 mi NE 3.5 mph - 0.97 in Rain Heavy Rain
3:51 PM 86.0 °F 98.3 °F 78.1 °F 77% 29.91 in 10.0 mi SE 10.4 mph - 0.06 in   Scattered Clouds
4:51 PM 89.1 °F 100.2 °F 75.9 °F 65% 29.89 in 10.0 mi SE 16.1 mph - N/A   Clear
5:51 PM 89.1 °F 96.0 °F 72.0 °F 57% 29.87 in 10.0 mi SE 15.0 mph - N/A   Clear
6:51 PM 87.1 °F 93.6 °F 72.0 °F 61% 29.87 in 10.0 mi SE 12.7 mph - N/A   Clear
7:51 PM 84.0 °F 91.9 °F 75.0 °F 74% 29.88 in 10.0 mi SE 10.4 mph - N/A   Clear
8:51 PM 81.0 °F 86.2 °F 73.9 °F 79% 29.88 in 10.0 mi SSE 9.2 mph - N/A   Clear
9:51 PM 79.0 °F - 75.0 °F 88% 29.90 in 10.0 mi SE 5.8 mph - N/A   Clear
10:51 PM 78.1 °F - 75.0 °F 90% 29.92 in 10.0 mi SE 5.8 mph - N/A   Clear
11:51 PM 77.0 °F - 75.0 °F 94% 29.94 in 10.0 mi SSW 4.6 mph - N/A   Partly Cloudy